Overview Statistics Trail Chart Weather Telemetry Raw packets
 

This is the latest recevied weather packets stored in our database for station/object OM5ZU-10. If no packets are shown the sender has not sent any weather packets the latest 10 day(s).

<< 33 34 35 36 37 38 39 >>
Time Temp. Humidity Pressure Rain* Wind** Luminosity Snow
1787796962 16.67° C 72% 1018.2 hPa - - - -
1787796062 16.67° C 72% 1018.3 hPa - - - -
1787795162 17.22° C 72% 1018 hPa - - - -
1787794262 17.22° C 72% 1018 hPa - - - -
1787793362 17.78° C 72% 1018 hPa - - - -
1787792462 18.33° C 72% 1018.1 hPa - - - -
1787791561 18.89° C 72% 1018.1 hPa - - - -
1787790661 18.33° C 72% 1018.2 hPa - - - -
1787789761 18.33° C 72% 1018.1 hPa - - - -
1787788861 17.22° C 72% 1018.2 hPa - - - -
1787787961 17.22° C 72% 1018.3 hPa - - - -
1787787060 16.67° C 72% 1018.4 hPa - - - -
1787786160 16.67° C 72% 1018.2 hPa - - - -
1787785260 16.67° C 72% 1018.1 hPa - - - -
1787784360 16.11° C 72% 1018.1 hPa - - - -
1787783460 15.56° C 72% 1017.9 hPa - - - -
1787782560 15.56° C 72% 1017.9 hPa - - - -
1787781660 15.56° C 72% 1017.8 hPa - - - -
1787780759 16.11° C 72% 1017.7 hPa - - - -
1787779859 16.67° C 72% 1017.7 hPa - - - -
1787778959 17.22° C 72% 1017.7 hPa - - - -
1787778059 17.22° C 72% 1017.7 hPa - - - -
1787777159 17.22° C 72% - - - - -
1787776257 17.22° C 72% 1017.5 hPa - - - -
1787775357 17.22° C 72% 1017.3 hPa - - - -

* Rain since midnight (hover to see other rain measurements)
** Current wind speed in m/s (hover to see current wind gust speed)